| time (UTC) | temp F | wind direction | speed MPH | gust MPH | rain 1hr in | rain 24hr in | rain mn in | humidity % | barometer mb |
| 20260509094524 | 52 | 229 | 2.0 | 6.0 | 0.02 | 0.20 | 0.18 | 93 | 1009.1 |
| 20260509093026 | 52 | 184 | 3.0 | 7.0 | 0.01 | 0.19 | 0.17 | 93 | 1009.2 |
| 20260509091520 | 53 | 234 | 2.0 | 6.0 | 0.02 | 0.19 | 0.17 | 93 | 1009.2 |
| 20260509090021 | 53 | 236 | 2.0 | 6.0 | 0.03 | 0.18 | 0.16 | 93 | 1009.3 |
| 20260509084515 | 52 | 205 | 2.0 | 5.0 | 0.05 | 0.18 | 0.16 | 93 | 1009.4 |
| 20260509083028 | 53 | 213 | 1.0 | 5.0 | 0.07 | 0.18 | 0.16 | 93 | 1009.5 |
| 20260509081538 | 53 | 191 | 1.0 | 4.0 | 0.08 | 0.17 | 0.15 | 93 | 1009.7 |
| 20260509080025 | 53 | 190 | 1.0 | 4.0 | 0.07 | 0.15 | 0.13 | 93 | 1009.7 |
| 20260509074520 | 53 | 186 | 1.0 | 4.0 | 0.07 | 0.13 | 0.11 | 92 | 1009.9 |
| 20260509073020 | 53 | 163 | 2.0 | 5.0 | 0.06 | 0.11 | 0.09 | 92 | 1009.9 |
| 20260509071519 | 53 | 153 | 0.0 | 2.0 | 0.05 | 0.09 | 0.07 | 92 | 1009.8 |
| 20260509070016 | 53 | 211 | 0.0 | 2.0 | 0.04 | 0.08 | 0.06 | 92 | 1009.9 |
| 20260509064529 | 52 | 228 | 0.0 | 2.0 | 0.02 | 0.06 | 0.04 | 92 | 1010.0 |
| 20260509063025 | 52 | 211 | 0.0 | 2.0 | 0.01 | 0.05 | 0.03 | 92 | 1010.3 |
| 20260509061524 | 52 | 192 | 0.0 | 0.0 | 0.01 | 0.04 | 0.02 | 92 | 1010.3 |
| 20260509060024 | 52 | 192 | 0.0 | 0.0 | 0.01 | 0.04 | 0.02 | 92 | 1010.5 |
| 20260509054532 | 52 | 192 | 0.0 | 0.0 | 0.02 | 0.04 | 0.02 | 92 | 1010.6 |
| 20260509053035 | 52 | 192 | 0.0 | 0.0 | 0.02 | 0.04 | 0.02 | 92 | 1010.6 |
| 20260509051528 | 52 | 234 | 0.0 | 0.0 | 0.01 | 0.03 | 0.01 | 92 | 1010.5 |
| 20260509050038 | 52 | 234 | 0.0 | 0.0 | 0.01 | 0.03 | 0.01 | 91 | 1010.6 |
| 20260509044528 | 52 | 262 | 0.0 | 0.0 | 0.00 | 0.02 | 0.00 | 91 | 1010.8 |
| 20260509043027 | 53 | 262 | 0.0 | 0.0 | 0.00 | 0.02 | 0.00 | 91 | 1010.7 |
| 20260509041526 | 53 | 262 | 0.0 | 0.0 | 0.00 | 0.02 | 0.00 | 91 | 1010.7 |
| 20260509040022 | 53 | 262 | 0.0 | 0.0 | 0.00 | 0.02 | 0.00 | 91 | 1011.0 |
| 20260509034516 | 53 | 262 | 0.0 | 0.0 | 0.00 | 0.02 | 0.02 | 90 | 1011.1 |
| 20260509033014 | 53 | 262 | 0.0 | 0.0 | 0.00 | 0.02 | 0.02 | 90 | 1011.1 |
| 20260509031512 | 53 | 262 | 0.0 | 0.0 | 0.00 | 0.02 | 0.02 | 89 | 1011.3 |
| 20260509030033 | 53 | 262 | 0.0 | 0.0 | 0.00 | 0.02 | 0.02 | 89 | 1011.5 |
| 20260509024523 | 53 | 262 | 0.0 | 0.0 | 0.00 | 0.02 | 0.02 | 88 | 1011.5 |
| 20260509023029 | 53 | 262 | 0.0 | 0.0 | 0.00 | 0.02 | 0.02 | 88 | 1011.4 |
| 20260509021519 | 53 | 262 | 0.0 | 0.0 | 0.01 | 0.02 | 0.02 | 88 | 1011.1 |
| 20260509020018 | 53 | 262 | 0.0 | 0.0 | 0.01 | 0.02 | 0.02 | 87 | 1011.1 |
| 20260509014515 | 54 | 262 | 0.0 | 0.0 | 0.02 | 0.02 | 0.02 | 85 | 1011.3 |
| 20260509013010 | 54 | 262 | 0.0 | 0.0 | 0.02 | 0.02 | 0.02 | 84 | 1011.2 |
| 20260509011530 | 55 | 262 | 0.0 | 0.0 | 0.01 | 0.01 | 0.01 | 83 | 1011.1 |
| 20260509010025 | 56 | 230 | 0.0 | 0.0 | 0.01 | 0.01 | 0.01 | 77 | 1010.9 |
| 20260509004527 | 57 | 230 | 0.0 | 0.0 | 0.00 | 0.00 | 0.00 | 74 | 1010.9 |
| 20260509003042 | 58 | 230 | 0.0 | 0.0 | 0.00 | 0.00 | 0.00 | 73 | 1010.9 |
| 20260509001516 | 59 | 230 | 0.0 | 0.0 | 0.00 | 0.00 | 0.00 | 68 | 1010.9 |
| 20260509000016 | 60 | 221 | 0.0 | 0.0 | 0.00 | 0.00 | 0.00 | 62 | 1010.7 |
| 20260508234528 | 61 | 221 | 0.0 | 2.0 | 0.00 | 0.00 | 0.00 | 57 | 1010.6 |
| 20260508233028 | 62 | 251 | 0.0 | 4.0 | 0.00 | 0.00 | 0.00 | 53 | 1010.4 |
| 20260508231526 | 62 | 211 | 1.0 | 10.0 | 0.00 | 0.00 | 0.00 | 51 | 1010.6 |
| 20260508230026 | 63 | 325 | 3.0 | 8.0 | 0.00 | 0.00 | 0.00 | 47 | 1010.7 |
| 20260508224522 | 64 | 189 | 0.0 | 4.0 | 0.00 | 0.00 | 0.00 | 50 | 1010.4 |
| 20260508223020 | 64 | 247 | 1.0 | 4.0 | 0.00 | 0.00 | 0.00 | 47 | 1010.4 |
| 20260508221520 | 64 | 275 | 2.0 | 8.0 | 0.00 | 0.00 | 0.00 | 45 | 1010.3 |
| 20260508220025 | 64 | 217 | 3.0 | 8.0 | 0.00 | 0.00 | 0.00 | 45 | 1010.4 |
| 20260508214507 | 65 | 244 | 3.0 | 10.0 | 0.00 | 0.00 | 0.00 | 44 | 1010.3 |
| 20260508213007 | 65 | 225 | 6.0 | 12.0 | 0.00 | 0.00 | 0.00 | 44 | 1010.4 |
| 20260508211529 | 65 | 259 | 6.0 | 13.0 | 0.00 | 0.00 | 0.00 | 43 | 1010.5 |
| 20260508210022 | 65 | 213 | 7.0 | 17.0 | 0.00 | 0.00 | 0.00 | 44 | 1010.5 |
| 20260508204518 | 65 | 242 | 3.0 | 12.0 | 0.00 | 0.00 | 0.00 | 45 | 1010.5 |
| 20260508203017 | 65 | 252 | 6.0 | 18.0 | 0.00 | 0.00 | 0.00 | 43 | 1010.7 |
| 20260508201510 | 65 | 217 | 5.0 | 17.0 | 0.00 | 0.00 | 0.00 | 44 | 1010.9 |
| 20260508200008 | 65 | 232 | 7.0 | 18.0 | 0.00 | 0.00 | 0.00 | 44 | 1011.1 |
| 20260508194527 | 64 | 196 | 9.0 | 19.0 | 0.00 | 0.00 | 0.00 | 43 | 1011.2 |
| 20260508193026 | 64 | 246 | 6.0 | 13.0 | 0.00 | 0.00 | 0.00 | 45 | 1011.4 |
| 20260508191523 | 65 | 300 | 3.0 | 12.0 | 0.00 | 0.00 | 0.00 | 45 | 1011.4 |
| 20260508190032 | 67 | 244 | 4.0 | 17.0 | 0.00 | 0.00 | 0.00 | 47 | 1011.5 |
| 20260508184516 | 67 | 264 | 5.0 | 13.0 | 0.00 | 0.00 | 0.00 | 44 | 1011.6 |
| 20260508183026 | 65 | 216 | 8.0 | 14.0 | 0.00 | 0.00 | 0.00 | 48 | 1012.3 |
| 20260508181529 | 65 | 225 | 2.0 | 14.0 | 0.00 | 0.00 | 0.00 | 46 | 1012.5 |
| 20260508180028 | 65 | 206 | 7.0 | 16.0 | 0.00 | 0.00 | 0.00 | 47 | 1012.8 |
| 20260508174535 | 63 | 225 | 5.0 | 11.0 | 0.00 | 0.00 | 0.00 | 51 | 1013.3 |
| 20260508173021 | 61 | 140 | 3.0 | 9.0 | 0.00 | 0.00 | 0.00 | 52 | 1013.7 |
| 20260508171521 | 61 | 257 | 2.0 | 7.0 | 0.00 | 0.00 | 0.00 | 53 | 1013.8 |
| 20260508170032 | 61 | 253 | 3.0 | 9.0 | 0.00 | 0.00 | 0.00 | 50 | 1014.0 |
| 20260508164526 | 62 | 254 | 2.0 | 6.0 | 0.00 | 0.00 | 0.00 | 54 | 1014.1 |
| 20260508163040 | 60 | 208 | 3.0 | 9.0 | 0.00 | 0.00 | 0.00 | 50 | 1014.3 |
| 20260508161527 | 61 | 256 | 3.0 | 9.0 | 0.00 | 0.00 | 0.00 | 53 | 1014.5 |
| 20260508160027 | 58 | 167 | 3.0 | 7.0 | 0.00 | 0.00 | 0.00 | 53 | 1014.5 |
| 20260508154522 | 57 | 293 | 3.0 | 9.0 | 0.00 | 0.00 | 0.00 | 54 | 1014.6 |
| 20260508153027 | 56 | 234 | 4.0 | 12.0 | 0.00 | 0.00 | 0.00 | 55 | 1014.6 |
| 20260508151533 | 55 | 200 | 1.0 | 9.0 | 0.00 | 0.00 | 0.00 | 58 | 1015.0 |
| 20260508150029 | 54 | 284 | 3.0 | 9.0 | 0.00 | 0.00 | 0.00 | 58 | 1015.1 |
| 20260508144535 | 54 | 168 | 0.0 | 4.0 | 0.00 | 0.00 | 0.00 | 64 | 1015.2 |
| 20260508143028 | 54 | 216 | 1.0 | 5.0 | 0.00 | 0.00 | 0.00 | 61 | 1015.0 |
| 20260508141526 | 54 | 246 | 2.0 | 5.0 | 0.00 | 0.00 | 0.00 | 62 | 1015.1 |
| 20260508140027 | 53 | 205 | 3.0 | 9.0 | 0.00 | 0.00 | 0.00 | 60 | 1015.1 |
| 20260508134524 | 53 | 244 | 3.0 | 8.0 | 0.00 | 0.00 | 0.00 | 62 | 1015.1 |
| 20260508133008 | 52 | 248 | 6.0 | 11.0 | 0.00 | 0.00 | 0.00 | 63 | 1015.1 |
| 20260508131506 | 51 | 242 | 3.0 | 7.0 | 0.00 | 0.00 | 0.00 | 66 | 1015.0 |
| 20260508130008 | 50 | 176 | 2.0 | 6.0 | 0.00 | 0.00 | 0.00 | 65 | 1015.1 |
| 20260508124508 | 49 | 232 | 2.0 | 6.0 | 0.00 | 0.00 | 0.00 | 67 | 1015.0 |
| 20260508123010 | 48 | 186 | 2.0 | 7.0 | 0.00 | 0.00 | 0.00 | 68 | 1014.9 |
| 20260508121507 | 48 | 197 | 1.0 | 6.0 | 0.00 | 0.00 | 0.00 | 69 | 1015.0 |
| 20260508120006 | 46 | 185 | 1.0 | 6.0 | 0.00 | 0.00 | 0.00 | 72 | 1015.0 |
| 20260508114509 | 45 | 195 | 2.0 | 7.0 | 0.00 | 0.00 | 0.00 | 73 | 1014.9 |
| 20260508113011 | 44 | 242 | 1.0 | 3.0 | 0.00 | 0.00 | 0.00 | 75 | 1014.7 |
| 20260508111508 | 43 | 193 | 0.0 | 3.0 | 0.00 | 0.00 | 0.00 | 76 | 1014.6 |
| 20260508110009 | 43 | 171 | 0.0 | 5.0 | 0.00 | 0.00 | 0.00 | 77 | 1014.5 |
| 20260508104508 | 43 | 194 | 0.0 | 2.0 | 0.00 | 0.00 | 0.00 | 77 | 1014.4 |
| 20260508103012 | 43 | 188 | 0.0 | 2.0 | 0.00 | 0.00 | 0.00 | 76 | 1014.2 |
| 20260508101523 | 43 | 216 | 0.0 | 2.0 | 0.00 | 0.00 | 0.00 | 75 | 1014.2 |
| 20260508100011 | 43 | 203 | 1.0 | 3.0 | 0.00 | 0.00 | 0.00 | 75 | 1014.2 |